Tracking 18980 objects as of 18-Feb-2018
HD Live streaming from Space Station
objects crossing your sky now

AMC-15

Track AMC-15 now!
AMC-15 is classified as:


NORAD ID: 28446
Int'l Code: 2004-041A
Perigee: 35,783.9 km
Apogee: 35,803.6 km
Inclination: 0.0 °
Period: 1,436.1 minutes
Semi major axis: 42164 km
RCS: 20.7825 m2 (large)
Launch date: October 14, 2004
Source: SOCIETE EUROPEENNE DES SATELLITES (SES)
Launch site: TYURATAM MISSILE AND SPACE COMPLEX (TTMTR)

Hybrid Ku-Ka-band satellite; CONUS, Alaska, Hawaii.
aabbcc
Your satellite tracking list
Your tracking list is empty




NASA's NSSDC Master Catalog

Two Line Element Set (TLE):
1 28446U 04041A   18048.03996184 -.00000095  00000-0  00000+0 0  9998
2 28446   0.0302 323.9807 0002343   6.3616  85.9316  1.00271775 48887
Source of the keplerian elements: AFSPC